Egegik, AK

10:46 AM AKDT on March 27, 2017 (GMT -0800)
Egegik

Weather History for PAII - May, 2014

Change the Weather History Date:

Friday, May 16, 2014

  Actual Average (PAKN) Record (PAKN)
Temperature  
Mean Temperature 50 °F -  
Max Temperature 62 °F 51 °F 78 °F (2014)
Min Temperature 39 °F 35 °F 21 °F (1966)
Degree Days  
Heating Degree Days 14    
Moisture  
Dew Point 42 °F    
Average Humidity 72    
Maximum Humidity 100    
Minimum Humidity 52    
Precipitation  
Precipitation 0.00 in - - ()
Sea Level Pressure  
Sea Level Pressure 30.29 in    
Wind  
Wind Speed 9 mph (West)    
Max Wind Speed 16 mph    
Max Gust Speed 18 mph    
Visibility 10 miles    
Events      
Averages and records for this station are not official NWS values.
T = Trace of Precipitation, MM = Missing Value Source: NWS Daily Summary

Daily Weather History Graph

Daily Weather History Graph

Search for Another Location

Airport or City:

Trip Planner

Search our weather history database for the weather conditions in past years. The results will help you decide how hot, cold, wet, or windy it might be!

Date:

Astronomy

May. 16, 2014 Rise Set
Actual Time 6:01 AM AKDT 10:51 PM AKDT
Civil Twilight 5:04 AM AKDT 11:49 PM AKDT
Nautical Twilight 3:15 AM AKDT 1:45 AM AKDT
Astronomical Twilight Sun does not rise Sun does not rise
Moon 12:08 AM AKDT (5/16) 7:54 AM AKDT (5/16)
Length of Visible Light 18h 44m
Length of Day
16h 50m
Waning Gibbous, 95% of the Moon is Illuminated
May 16
Waning Gibbous
May 21
Last Quarter
May 28
New
Jun 5
First Quarter
Jun 12
Full

Hourly Weather History & Observations

Time (AKDT) Temp. Windchill Dew Point Humidity Pressure Visibility Wind Dir Wind Speed Gust Speed Precip Events Conditions
12:16 AM 44.6 °F 39.7 °F 39.2 °F 81% 30.36 in 10.0 mi West 9.2 mph - N/A   Clear
12:36 AM 44.6 °F 40.2 °F 39.2 °F 81% 30.36 in 10.0 mi West 8.1 mph - N/A   Clear
12:56 AM 44.6 °F 40.2 °F 39.2 °F 81% 30.35 in 10.0 mi WSW 8.1 mph - N/A   Clear
1:16 AM 42.8 °F 38.0 °F 39.2 °F 87% 30.35 in 10.0 mi West 8.1 mph - N/A   Clear
1:36 AM 42.8 °F 38.6 °F 39.2 °F 87% 30.35 in 10.0 mi SW 6.9 mph - N/A   Clear
1:56 AM 41.0 °F 36.4 °F 35.6 °F 81% 30.35 in 10.0 mi SW 6.9 mph - N/A   Clear
2:16 AM 39.2 °F 33.6 °F 35.6 °F 87% 30.35 in 10.0 mi SSW 8.1 mph - N/A   Clear
2:36 AM 41.0 °F 35.2 °F 37.4 °F 87% 30.35 in 10.0 mi SSW 9.2 mph - N/A   Clear
2:56 AM 41.0 °F 35.2 °F 37.4 °F 87% 30.35 in 10.0 mi SSW 9.2 mph - N/A   Clear
3:16 AM 41.0 °F 35.2 °F 37.4 °F 87% 30.34 in 10.0 mi SSW 9.2 mph - N/A   Clear
3:36 AM 41.0 °F 35.2 °F 37.4 °F 87% 30.34 in 10.0 mi SSW 9.2 mph - N/A   Clear
3:56 AM 41.0 °F 35.2 °F 37.4 °F 87% 30.34 in 10.0 mi SW 9.2 mph - N/A   Clear
4:16 AM 41.0 °F 35.2 °F 37.4 °F 87% 30.34 in 10.0 mi SW 9.2 mph - N/A   Clear
4:36 AM 41.0 °F 35.2 °F 37.4 °F 87% 30.33 in 10.0 mi SW 9.2 mph - N/A   Clear
4:56 AM 41.0 °F 35.2 °F 37.4 °F 87% 30.34 in 9.0 mi SW 9.2 mph - N/A   Clear
5:16 AM 41.0 °F 35.8 °F 37.4 °F 87% 30.34 in 10.0 mi SW 8.1 mph - N/A   Clear
5:36 AM 39.2 °F 33.0 °F 39.2 °F 100% 30.34 in 9.0 mi SW 9.2 mph - N/A   Clear
5:56 AM 39.2 °F 33.0 °F 37.4 °F 93% 30.33 in 9.0 mi SW 9.2 mph - N/A   Clear
6:16 AM 39.2 °F 33.0 °F 37.4 °F 93% 30.33 in 8.0 mi SW 9.2 mph - N/A   Clear
6:36 AM 41.0 °F 35.2 °F 39.2 °F 93% 30.32 in 10.0 mi SW 9.2 mph - N/A   Clear
6:56 AM 41.0 °F 35.8 °F 37.4 °F 87% 30.33 in 1.2 mi SW 8.1 mph - N/A   Scattered Clouds
7:16 AM 42.8 °F 39.3 °F 39.2 °F 87% 30.32 in 10.0 mi WSW 5.8 mph - N/A   Clear
7:36 AM 42.8 °F 38.6 °F 41.0 °F 93% 30.32 in 10.0 mi SW 6.9 mph - N/A   Clear
7:56 AM 44.6 °F 42.2 °F 41.0 °F 87% 30.32 in 10.0 mi SW 4.6 mph - N/A   Unknown
8:16 AM 44.6 °F 42.2 °F 42.8 °F 93% 30.31 in 10.0 mi WSW 4.6 mph - N/A   Clear
8:36 AM 46.4 °F 45.2 °F 42.8 °F 87% 30.31 in 10.0 mi WSW 3.5 mph - N/A   Clear
8:56 AM 48.2 °F - 44.6 °F 87% 30.31 in 10.0 mi SW 3.5 mph - N/A   Clear
9:16 AM 48.2 °F - 46.4 °F 93% 30.31 in 10.0 mi Calm Calm - N/A   Clear
9:36 AM 51.8 °F - 46.4 °F 82% 30.31 in 10.0 mi Calm Calm - N/A   Clear
9:56 AM 53.6 °F - 44.6 °F 72% 30.31 in 10.0 mi NNE 4.6 mph - N/A   Clear
10:16 AM 55.4 °F - 42.8 °F 63% 30.31 in 10.0 mi Calm Calm - N/A   Clear
10:36 AM 55.4 °F - 44.6 °F 67% 30.31 in 10.0 mi NNE 5.8 mph - N/A   Clear
10:56 AM 57.2 °F - 42.8 °F 59% 30.31 in 10.0 mi NNE 4.6 mph - N/A   Clear
11:16 AM 57.2 °F - 42.8 °F 59% 30.31 in 10.0 mi Calm Calm - N/A   Clear
11:36 AM 59.0 °F - 44.6 °F 59% 30.30 in 10.0 mi NNE 3.5 mph - N/A   Clear
11:56 AM 60.8 °F - 44.6 °F 55% 30.30 in 10.0 mi North 6.9 mph - N/A   Clear
12:16 PM 57.2 °F - 46.4 °F 67% 30.30 in 10.0 mi West 9.2 mph - N/A   Clear
12:36 PM 59.0 °F - 44.6 °F 59% 30.29 in 10.0 mi West 6.9 mph - N/A   Clear
12:56 PM 59.0 °F - 44.6 °F 59% 30.29 in 10.0 mi West 6.9 mph - N/A   Clear
1:16 PM 62.6 °F - 44.6 °F 52% 30.28 in 10.0 mi WNW 10.4 mph - N/A   Clear
1:36 PM 59.0 °F - 44.6 °F 59% 30.28 in 10.0 mi WNW 13.8 mph - N/A   Clear
1:56 PM 55.4 °F - 42.8 °F 63% 30.28 in 10.0 mi West 15.0 mph - N/A   Clear
2:16 PM 55.4 °F - 42.8 °F 63% 30.28 in 10.0 mi West 11.5 mph - N/A   Clear
2:36 PM 55.4 °F - 42.8 °F 63% 30.28 in 10.0 mi West 12.7 mph - N/A   Clear
2:56 PM 55.4 °F - 42.8 °F 63% 30.28 in 10.0 mi West 11.5 mph - N/A   Clear
3:16 PM 55.4 °F - 41.0 °F 58% 30.28 in 10.0 mi West 12.7 mph - N/A   Clear
3:36 PM 55.4 °F - 42.8 °F 63% 30.28 in 10.0 mi WSW 11.5 mph - N/A   Clear
3:56 PM 55.4 °F - 42.8 °F 63% 30.27 in 10.0 mi West 9.2 mph - N/A   Clear
4:16 PM 57.2 °F - 42.8 °F 59% 30.26 in 10.0 mi West 12.7 mph - N/A   Clear
4:36 PM 55.4 °F - 42.8 °F 63% 30.26 in 10.0 mi West 9.2 mph - N/A   Clear
4:56 PM 55.4 °F - 41.0 °F 58% 30.26 in 10.0 mi West 10.4 mph - N/A   Clear
5:16 PM 55.4 °F - 42.8 °F 63% 30.26 in 10.0 mi West 8.1 mph - N/A   Clear
5:36 PM 57.2 °F - 44.6 °F 63% 30.25 in 10.0 mi WNW 12.7 mph - N/A   Clear
5:56 PM 57.2 °F - 44.6 °F 63% 30.24 in 10.0 mi WNW 11.5 mph - N/A   Clear
6:16 PM 59.0 °F - 44.6 °F 59% 30.24 in 10.0 mi West 12.7 mph 18.4 mph N/A   Clear
6:36 PM 60.8 °F - 44.6 °F 55% 30.23 in 10.0 mi WNW 12.7 mph - N/A   Clear
6:56 PM 62.6 °F - 44.6 °F 52% 30.23 in 10.0 mi WNW 15.0 mph - N/A   Clear
7:16 PM 60.8 °F - 42.8 °F 52% 30.23 in 10.0 mi WNW 16.1 mph - N/A   Clear
7:36 PM 60.8 °F - 42.8 °F 52% 30.22 in 10.0 mi WNW 13.8 mph - N/A   Clear
7:56 PM 59.0 °F - 44.6 °F 59% 30.22 in 10.0 mi WNW 13.8 mph - N/A   Clear
8:16 PM 57.2 °F - 44.6 °F 63% 30.22 in 10.0 mi WNW 15.0 mph - N/A   Clear
8:36 PM 57.2 °F - 42.8 °F 59% 30.22 in 10.0 mi WNW 12.7 mph - N/A   Clear
8:56 PM 57.2 °F - 42.8 °F 59% 30.22 in 10.0 mi WNW 11.5 mph 18.4 mph N/A   Clear
9:16 PM 57.2 °F - 42.8 °F 59% 30.22 in 10.0 mi WNW 12.7 mph - N/A   Clear
9:36 PM 55.4 °F - 42.8 °F 63% 30.22 in 10.0 mi WNW 11.5 mph 17.3 mph N/A   Clear
9:56 PM 55.4 °F - 42.8 °F 63% 30.22 in 10.0 mi WNW 13.8 mph - N/A   Clear
10:16 PM 55.4 °F - 42.8 °F 63% 30.22 in 10.0 mi WNW 11.5 mph - N/A   Clear
10:36 PM 53.6 °F - 42.8 °F 67% 30.22 in 10.0 mi West 8.1 mph - N/A   Clear
10:56 PM 53.6 °F - 42.8 °F 67% 30.22 in 10.0 mi WSW 6.9 mph - N/A   Clear
11:16 PM 51.8 °F - 42.8 °F 71% 30.22 in 10.0 mi West 8.1 mph - N/A   Clear
11:36 PM 50.0 °F - 42.8 °F 76% 30.22 in 10.0 mi WSW 9.2 mph - N/A   Clear
11:56 PM 46.4 °F 42.4 °F 39.2 °F 76% 30.22 in 10.0 mi SW 8.1 mph - N/A   Clear